COSMOS 2514 (751)

Last updated on Jan. 18, 2020, 4:38 a.m. UTC

1 41330U 16008A   20017.50073848 -.00000033  00000-0  00000+0 0  9997
2 41330  65.4516  32.5483 0011945 224.6320 315.7207  2.13103062 30695
UTC
Height (km)
Latitude
Longitude
Inclination
Orbital Period
UTC large
Height (km)
Speed (km/s)
/
Latitude / Longitude
Inclination (degrees)
Orbital Period (minutes)
Azimuth
Elevation
Range (km)
Doppler Factor
iOS Compass Heading
iOS Angle

Next 30 passes for location: Hong Kong

Rise time Rise Azimuth (degrees) Set time Set Azimuth (degrees) Duration Max altitude (degrees)

No matching passes for this satellites